STARLINK-35330

Last updated on Mon Oct 20 2025 00:02:07 GMT+0000 (Coordinated Universal Time)

1 65791U 25218A 25292.26673621 .00108967 00000+0 19745-2 0 9997 2 65791 97.6022 152.8337 0001420 92.9862 267.1551 15.49232114 3640
UTC large
Height (km)
Speed (km/s)
/
Latitude / Longitude
Inclination (degrees)
Orbital Period (minutes)
Azimuth
Elevation
Range (km)
Doppler Factor

Next 0 passes for location: London (51.5072 / 0.1276)

Sorry there are no passes over London.